MZT8087 ZBDT-ZBAA

Flight info

Callsign MZT8087
Flight time N/A
Altitude 33100
Route PUKOL B458 BIKUT W69 GUVBA GUVBA7X
Aircraft B737/M-SDFGHIM1RWXYZ/LB1

Departure

Time 2026-05-06 12:58
Airport Datong Yungang International Airport (ZBDT)

Arrival

Time N/A
Airport Beijing Capital International Airport (ZBAA)
Time Latitude Longitude Altitude Speed Heading
2026-05-06 12:26 40.05644 113.48250 3475 ft 0 kts 221°
2026-05-06 12:47 40.05645 113.48252 3471 ft 2 kts 221°
2026-05-06 12:47 40.05657 113.48266 3471 ft 2 kts 229°
2026-05-06 12:47 40.05667 113.48284 3471 ft 2 kts 242°
2026-05-06 12:48 40.05673 113.48304 3478 ft 2 kts 267°
2026-05-06 12:48 40.05670 113.48325 3477 ft 2 kts 297°
2026-05-06 12:48 40.05662 113.48341 3480 ft 1 kts 310°
2026-05-06 12:48 40.05660 113.48344 3480 ft 0 kts 310°
2026-05-06 12:53 40.05665 113.48337 3477 ft 3 kts 310°
2026-05-06 12:53 40.05688 113.48320 3479 ft 4 kts 349°
2026-05-06 12:53 40.05723 113.48339 3478 ft 6 kts 39°
2026-05-06 12:54 40.05758 113.48378 3474 ft 7 kts 41°
2026-05-06 12:54 40.05793 113.48419 3476 ft 7 kts 41°
2026-05-06 12:54 40.05829 113.48481 3477 ft 12 kts 76°
2026-05-06 12:54 40.05787 113.48583 3478 ft 14 kts 131°
2026-05-06 12:55 40.05720 113.48681 3480 ft 14 kts 131°
2026-05-06 12:55 40.05656 113.48775 3479 ft 14 kts 131°
2026-05-06 12:55 40.05595 113.48864 3478 ft 13 kts 131°
2026-05-06 12:55 40.05536 113.48950 3479 ft 13 kts 132°
2026-05-06 12:56 40.05477 113.49036 3478 ft 13 kts 131°
2026-05-06 12:56 40.05412 113.49131 3478 ft 15 kts 132°
2026-05-06 12:56 40.05347 113.49193 3479 ft 7 kts 165°
2026-05-06 12:56 40.05314 113.49229 3478 ft 6 kts 107°
2026-05-06 12:57 40.05321 113.49261 3479 ft 0 kts 50°
2026-05-06 12:57 40.05322 113.49261 3479 ft 0 kts 37°
2026-05-06 12:57 40.05325 113.49259 3479 ft 0 kts 354°
2026-05-06 12:57 40.05336 113.49244 3478 ft 5 kts 310°
2026-05-06 12:58 40.05342 113.49235 3477 ft 0 kts 311°
2026-05-06 12:58 40.05472 113.49044 3477 ft 70 kts 312°
2026-05-06 12:58 40.05973 113.48320 3481 ft 142 kts 314°
2026-05-06 12:58 40.06691 113.47290 4080 ft 155 kts 313°
2026-05-06 12:59 40.07341 113.46222 5200 ft 141 kts 311°
2026-05-06 12:59 40.07888 113.45175 6032 ft 142 kts 310°
2026-05-06 12:59 40.08448 113.44103 6759 ft 147 kts 309°
2026-05-06 12:59 40.09081 113.42940 7313 ft 169 kts 310°
2026-05-06 13:00 40.09725 113.41516 7666 ft 202 kts 290°
2026-05-06 13:00 40.09746 113.39544 8005 ft 239 kts 259°
2026-05-06 13:00 40.08900 113.37524 8481 ft 271 kts 230°
2026-05-06 13:00 40.07282 113.36192 9606 ft 281 kts 201°
2026-05-06 13:01 40.05331 113.35962 10823 ft 288 kts 175°
2026-05-06 13:01 40.03386 113.36811 11544 ft 304 kts 153°
2026-05-06 13:01 40.01696 113.38702 11918 ft 336 kts 129°
2026-05-06 13:01 40.00507 113.41472 11976 ft 359 kts 108°
2026-05-06 13:02 40.00106 113.44677 11953 ft 360 kts 86°
2026-05-06 13:02 40.00666 113.47794 11955 ft 352 kts 59°
2026-05-06 13:02 40.02127 113.50276 11956 ft 341 kts 36°
2026-05-06 13:02 40.04100 113.51944 11775 ft 339 kts 24°
2026-05-06 13:03 40.05935 113.53881 11818 ft 347 kts 50°
2026-05-06 13:03 40.07256 113.56498 11886 ft 343 kts 46°
2026-05-06 13:03 40.08962 113.58567 11902 ft 338 kts 33°
2026-05-06 13:03 40.10762 113.60602 12084 ft 353 kts 46°
2026-05-06 13:04 40.11969 113.63458 13073 ft 367 kts 67°
2026-05-06 13:04 40.12545 113.66753 14112 ft 377 kts 76°
2026-05-06 13:04 40.13312 113.70030 15021 ft 378 kts 63°
2026-05-06 13:04 40.14472 113.73133 15941 ft 382 kts 56°
2026-05-06 13:05 40.15739 113.76223 16831 ft 390 kts 59°
2026-05-06 13:05 40.16949 113.79446 17733 ft 399 kts 60°
2026-05-06 13:05 40.18235 113.82703 18450 ft 402 kts 52°
2026-05-06 13:05 40.19837 113.85679 18736 ft 406 kts 58°
2026-05-06 13:06 40.21007 113.89095 18811 ft 415 kts 62°
2026-05-06 13:06 40.22199 113.92568 18802 ft 420 kts 62°
2026-05-06 13:06 40.23399 113.96057 18795 ft 419 kts 62°
2026-05-06 13:06 40.24579 113.99529 18793 ft 418 kts 62°
2026-05-06 13:07 40.25736 114.02970 18794 ft 417 kts 63°
2026-05-06 13:07 40.26895 114.06442 18800 ft 417 kts 64°
2026-05-06 13:07 40.27732 114.10094 18798 ft 421 kts 78°
2026-05-06 13:07 40.27951 114.13923 18804 ft 424 kts 91°
2026-05-06 13:08 40.27571 114.17754 18794 ft 425 kts 104°
2026-05-06 13:08 40.26876 114.21517 18800 ft 426 kts 105°
2026-05-06 13:08 40.26142 114.25270 18800 ft 426 kts 106°
2026-05-06 13:08 40.25396 114.29037 18787 ft 427 kts 105°
2026-05-06 13:09 40.24767 114.32831 18782 ft 428 kts 97°
2026-05-06 13:09 40.24601 114.36665 18785 ft 434 kts 93°
2026-05-06 13:09 40.24045 114.38998 17694 ft 430 kts 149°